| time (UTC) | temp C | wind direction | speed KPH | gust KPH | rain 1hr cm | rain 24hr cm | rain mn cm | humidity % | barometer mb |
| 20260505023706 | 19 | 114 | 0.0 | 4.8 | 0.00 | 0.00 | 0.00 | 68 | 1013.2 |
| 20260505022206 | 20 | 118 | 1.6 | 8.0 | 0.00 | 0.00 | 0.00 | 67 | 1013.6 |
| 20260505020705 | 20 | 149 | 1.6 | 9.7 | 0.00 | 0.00 | 0.00 | 66 | 1013.6 |
| 20260505013705 | 20 | 288 | 3.2 | 9.7 | 0.00 | 0.00 | 0.00 | 62 | 1013.2 |
| 20260505012205 | 21 | 183 | 3.2 | 11.3 | 0.00 | 0.00 | 0.00 | 61 | 1012.9 |
| 20260505005205 | 22 | 218 | 3.2 | 8.0 | 0.00 | 0.00 | 0.00 | 57 | 1012.9 |
| 20260505003704 | 23 | 190 | 3.2 | 9.7 | 0.00 | 0.00 | 0.00 | 55 | 1012.6 |
| 20260505002204 | 23 | 197 | 3.2 | 8.0 | 0.00 | 0.00 | 0.00 | 53 | 1012.9 |
| 20260505000704 | 24 | 103 | 3.2 | 11.3 | 0.00 | 0.00 | 0.00 | 51 | 1012.9 |
| 20260504235204 | 25 | 231 | 6.4 | 16.1 | 0.00 | 0.00 | 0.00 | 50 | 1012.9 |
| 20260504230703 | 26 | 149 | 0.0 | 12.9 | 0.00 | 0.00 | 0.00 | 45 | 1012.9 |
| 20260504225203 | 27 | 188 | 4.8 | 14.5 | 0.00 | 0.00 | 0.00 | 45 | 1012.9 |
| 20260504223703 | 27 | 224 | 3.2 | 16.1 | 0.00 | 0.00 | 0.00 | 44 | 1013.2 |
| 20260504222202 | 28 | 194 | 3.2 | 16.1 | 0.00 | 0.00 | 0.00 | 43 | 1013.2 |
| 20260504220702 | 29 | 190 | 1.6 | 17.7 | 0.00 | 0.00 | 0.00 | 43 | 1013.2 |
| 20260504215202 | 29 | 243 | 6.4 | 14.5 | 0.00 | 0.00 | 0.00 | 42 | 1013.6 |
| 20260504213702 | 29 | 107 | 4.8 | 16.1 | 0.00 | 0.00 | 0.00 | 44 | 1013.6 |
| 20260504212202 | 29 | 150 | 4.8 | 17.7 | 0.00 | 0.00 | 0.00 | 43 | 1013.6 |
| 20260504210702 | 30 | 187 | 0.0 | 14.5 | 0.00 | 0.00 | 0.00 | 43 | 1013.9 |
| 20260504205201 | 29 | 138 | 1.6 | 12.9 | 0.00 | 0.00 | 0.00 | 44 | 1014.6 |
| 20260504203701 | 30 | 155 | 6.4 | 12.9 | 0.00 | 0.00 | 0.00 | 43 | 1014.6 |
| 20260504202201 | 30 | 183 | 3.2 | 17.7 | 0.00 | 0.00 | 0.00 | 43 | 1014.9 |
| 20260504200701 | 30 | 236 | 6.4 | 19.3 | 0.00 | 0.00 | 0.00 | 43 | 1014.9 |
| 20260504195201 | 30 | 235 | 6.4 | 16.1 | 0.00 | 0.00 | 0.00 | 44 | 1015.3 |
| 20260504193701 | 29 | 128 | 0.0 | 19.3 | 0.00 | 0.00 | 0.00 | 44 | 1015.6 |
| 20260504192200 | 29 | 124 | 3.2 | 9.7 | 0.00 | 0.00 | 0.00 | 45 | 1016.0 |
| 20260504190700 | 28 | 229 | 4.8 | 17.7 | 0.00 | 0.00 | 0.00 | 45 | 1016.0 |
| 20260504185200 | 29 | 148 | 6.4 | 14.5 | 0.00 | 0.00 | 0.00 | 44 | 1016.3 |
| 20260504183659 | 29 | 197 | 8.0 | 14.5 | 0.00 | 0.00 | 0.00 | 46 | 1016.3 |
| 20260504182159 | 28 | 243 | 9.7 | 14.5 | 0.00 | 0.00 | 0.00 | 46 | 1016.6 |
| 20260504180659 | 28 | 163 | 6.4 | 14.5 | 0.00 | 0.00 | 0.00 | 47 | 1017.0 |
| 20260504175159 | 27 | 205 | 3.2 | 16.1 | 0.00 | 0.00 | 0.00 | 48 | 1017.0 |
| 20260504173659 | 27 | 118 | 4.8 | 14.5 | 0.00 | 0.00 | 0.00 | 50 | 1017.3 |
| 20260504172158 | 27 | 210 | 11.3 | 17.7 | 0.00 | 0.00 | 0.00 | 51 | 1017.3 |
| 20260504170658 | 27 | 252 | 9.7 | 17.7 | 0.00 | 0.00 | 0.00 | 51 | 1017.3 |
| 20260504150657 | 21 | 198 | 1.6 | 11.3 | 0.00 | 0.00 | 0.00 | 76 | 1018.3 |
| 20260504140656 | 17 | 205 | 3.2 | 8.0 | 0.00 | 0.00 | 0.00 | 89 | 1018.3 |
| 20260504130656 | 13 | 45 | 0.0 | 0.0 | 0.00 | 0.00 | 0.00 | 96 | 1018.3 |
| 20260504110654 | 12 | 66 | 0.0 | 0.0 | 0.00 | 0.00 | 0.00 | 95 | 1017.7 |
| 20260504080652 | 15 | 211 | 0.0 | 0.0 | 0.00 | 0.00 | 0.00 | 87 | 1017.7 |
| 20260504050650 | 16 | 165 | 0.0 | 1.6 | 0.00 | 0.00 | 0.00 | 81 | 1018.7 |
| 20260504045149 | 16 | 225 | 0.0 | 0.0 | 0.00 | 0.00 | 0.00 | 80 | 1018.7 |
| 20260504043649 | 16 | 225 | 0.0 | 3.2 | 0.00 | 0.00 | 0.00 | 79 | 1019.0 |
| 20260504042149 | 16 | 224 | 3.2 | 4.8 | 0.00 | 0.00 | 0.00 | 79 | 1019.0 |
| 20260504040649 | 16 | 169 | 0.0 | 0.0 | 0.00 | 0.00 | 0.00 | 78 | 1019.0 |
| 20260504035149 | 16 | 169 | 0.0 | 0.0 | 0.00 | 0.00 | 0.00 | 76 | 1019.0 |
| 20260504033648 | 16 | 169 | 0.0 | 0.0 | 0.00 | 0.00 | 0.00 | 73 | 1019.0 |
| 20260504032148 | 16 | 169 | 0.0 | 0.0 | 0.00 | 0.00 | 0.00 | 73 | 1019.0 |
| 20260504030648 | 17 | 169 | 0.0 | 1.6 | 0.00 | 0.00 | 0.00 | 71 | 1019.0 |